When you browse on this site, cookies collect data to enhance your experience and personalize the content and advertising you see.
Visit our Privacy Policy to learn more. By continuing to use the site, you agree to this use of cookies and data.
  • In Hungary
  • List of Countries
  • For 7 days
  • Water Temperature
  • Satellite Maps
  • Weather Map
  • News
  • Weather Widgets
  • user-avatar
    Login

    Hourly Weather Taldy Kurgan

    Today, 22 January, Tuesday

    Time Temperature Precipitation Wind Pressure Humidity
    00:00 -3°C° 0 mm 2 mps 722 mmHg 78%
    01:00 -4°C° 0 mm 2 mps 722 mmHg 76%
    02:00 -2°C° 0 mm 1 mps 722 mmHg 75%
    03:00 -3°C° 0 mm 1 mps 721 mmHg 74%
    04:00 -5°C° 0 mm 2 mps 721 mmHg 73%
    05:00 -4°C° 0 mm 1 mps 721 mmHg 74%
    06:00 -4°C° 0 mm 1 mps 720 mmHg 74%
    07:00 -6°C° 0 mm 1 mps 720 mmHg 73%
    08:00 -6°C° 0 mm 1 mps 720 mmHg 73%
    09:00 -5°C° 0 mm 2 mps 720 mmHg 75%
    10:00 -4°C° 0 mm 2 mps 720 mmHg 77%
    11:00 -3°C° 0 mm 2 mps 720 mmHg 79%
    12:00 -2°C° 0 mm 2 mps 719 mmHg 81%
    13:00 -2°C° 0 mm 3 mps 718 mmHg 84%
    14:00 -2°C° 0 mm 3 mps 718 mmHg 87%
    15:00 -4°C° 0 mm 2 mps 717 mmHg 88%
    16:00 -5°C° 0 mm 2 mps 717 mmHg 90%
    17:00 -7°C° 0 mm 2 mps 717 mmHg 91%
    18:00 -7°C° 0 mm 2 mps 716 mmHg 90%
    19:00 -6°C° 0 mm 1 mps 716 mmHg 89%
    20:00 -7°C° 0 mm 1 mps 716 mmHg 88%
    21:00 -7°C° 0 mm 1 mps 716 mmHg 87%
    22:00 -7°C° 0 mm 1 mps 716 mmHg 86%
    23:00 -8°C° 0 mm 1 mps 716 mmHg 84%

    Tomorrow, 23 January, Wednesday

    Time Temperature Precipitation Wind Pressure Humidity
    00:00 -8°C° 0 mm 1 mps 716 mmHg 83%
    01:00 -8°C° 0 mm 1 mps 715 mmHg 82%
    02:00 -8°C° 0 mm 1 mps 715 mmHg 81%
    03:00 -8°C° 0 mm 1 mps 716 mmHg 80%
    04:00 -8°C° 0 mm 0 mps 716 mmHg 79%
    05:00 -8°C° 0 mm 0 mps 716 mmHg 78%
    06:00 -8°C° 0 mm 0 mps 717 mmHg 77%
    07:00 -8°C° 0 mm 0 mps 717 mmHg 77%
    08:00 -8°C° 0 mm 0 mps 717 mmHg 76%
    09:00 -6°C° 0 mm 0 mps 718 mmHg 76%
    10:00 -4°C° 0 mm 1 mps 718 mmHg 76%
    11:00 -2°C° 0 mm 1 mps 719 mmHg 77%
    12:00 -2°C° 0 mm 1 mps 719 mmHg 79%
    13:00 -2°C° 0 mm 1 mps 719 mmHg 82%
    14:00 -2°C° 0 mm 1 mps 719 mmHg 84%
    15:00 -3°C° 0 mm 1 mps 719 mmHg 85%
    16:00 -6°C° 0 mm 1 mps 719 mmHg 86%
    17:00 -7°C° 0 mm 1 mps 719 mmHg 87%
    18:00 -7°C° 0 mm 1 mps 719 mmHg 85%
    19:00 -7°C° 0 mm 1 mps 719 mmHg 82%
    20:00 -7°C° 0 mm 1 mps 719 mmHg 80%
    21:00 -7°C° 0 mm 1 mps 719 mmHg 78%
    22:00 -7°C° 0 mm 1 mps 720 mmHg 76%
    23:00 -7°C° 0 mm 1 mps 720 mmHg 74%

    Day after tomorrow, 24 January, Thursday

    Time Temperature Precipitation Wind Pressure Humidity
    00:00 -7°C° 0 mm 1 mps 720 mmHg 73%
    01:00 -7°C° 0 mm 1 mps 720 mmHg 72%
    02:00 -6°C° 0 mm 1 mps 720 mmHg 71%
    03:00 -6°C° 0 mm 1 mps 720 mmHg 70%
    04:00 -6°C° 0 mm 1 mps 720 mmHg 69%
    05:00 -6°C° 0 mm 1 mps 720 mmHg 69%
    06:00 -7°C° 0 mm 2 mps 721 mmHg 68%
    07:00 -6°C° 0 mm 2 mps 721 mmHg 68%
    08:00 -6°C° 0 mm 2 mps 722 mmHg 67%
    09:00 -4°C° 0 mm 2 mps 722 mmHg 71%
    10:00 -2°C° 0 mm 2 mps 723 mmHg 76%
    11:00 +1°C° 0 mm 2 mps 723 mmHg 80%
    12:00 +1°C° 0 mm 2 mps 723 mmHg 82%
    13:00 +1°C° 0 mm 2 mps 723 mmHg 85%
    14:00 +2°C° 0 mm 2 mps 723 mmHg 88%
    15:00 +1°C° 0 mm 2 mps 723 mmHg 85%
    16:00 -1°C° 0 mm 2 mps 724 mmHg 82%
    17:00 -2°C° 0 mm 2 mps 724 mmHg 79%
    18:00 -2°C° 0 mm 2 mps 724 mmHg 78%
    19:00 -4°C° 0 mm 3 mps 724 mmHg 77%
    20:00 -4°C° 0 mm 3 mps 724 mmHg 77%
    21:00 -4°C° 0 mm 3 mps 724 mmHg 76%
    22:00 -4°C° 0 mm 3 mps 724 mmHg 76%
    23:00 -4°C° 0 mm 3 mps 724 mmHg 76%

    25 January, Friday

    Time Temperature Precipitation Wind Pressure Humidity
    00:00 -4°C° 0 mm 3 mps 724 mmHg 76%
    01:00 -4°C° 0 mm 4 mps 724 mmHg 75%
    02:00 -4°C° 0 mm 4 mps 725 mmHg 74%
    03:00 -5°C° 0 mm 4 mps 725 mmHg 73%
    04:00 -5°C° 0 mm 4 mps 725 mmHg 72%
    05:00 -5°C° 0 mm 3 mps 725 mmHg 71%
    06:00 -5°C° 0 mm 3 mps 725 mmHg 71%
    07:00 -5°C° 0 mm 3 mps 725 mmHg 70%
    08:00 -5°C° 0 mm 3 mps 725 mmHg 69%
    09:00 -2°C° 0 mm 2 mps 725 mmHg 74%
    10:00 -1°C° 0 mm 2 mps 725 mmHg 79%
    11:00 +2°C° 0 mm 1 mps 726 mmHg 84%
    12:00 +2°C° 0 mm 1 mps 725 mmHg 84%
    13:00 +1°C° 0 mm 2 mps 725 mmHg 85%
    14:00 +1°C° 0 mm 2 mps 725 mmHg 86%
    15:00 -2°C° 0 mm 2 mps 724 mmHg 84%
    16:00 -3°C° 0 mm 2 mps 724 mmHg 82%
    17:00 -4°C° 0 mm 2 mps 724 mmHg 80%
    18:00 -5°C° 0 mm 2 mps 724 mmHg 77%
    19:00 -5°C° 0 mm 2 mps 724 mmHg 73%
    20:00 -5°C° 0 mm 2 mps 724 mmHg 70%
    21:00 -6°C° 0 mm 2 mps 723 mmHg 67%
    22:00 -6°C° 0 mm 2 mps 723 mmHg 65%
    23:00 -6°C° 0 mm 2 mps 723 mmHg 63%

    26 January, Saturday

    Time Temperature Precipitation Wind Pressure Humidity
    00:00 -6°C° 0 mm 2 mps 722 mmHg 62%
    01:00 -6°C° 0 mm 2 mps 722 mmHg 60%
    02:00 -6°C° 0 mm 2 mps 721 mmHg 59%
    03:00 -6°C° 0 mm 2 mps 721 mmHg 58%
    04:00 -6°C° 0 mm 2 mps 721 mmHg 57%
    05:00 -6°C° 0 mm 2 mps 721 mmHg 56%
    06:00 -6°C° 0 mm 2 mps 721 mmHg 56%
    07:00 -6°C° 0 mm 2 mps 721 mmHg 55%
    08:00 -6°C° 0 mm 2 mps 721 mmHg 55%
    09:00 -3°C° 0 mm 1 mps 721 mmHg 59%
    10:00 -1°C° 0 mm 1 mps 721 mmHg 64%
    11:00 +1°C° 0 mm 1 mps 721 mmHg 68%
    12:00 +1°C° 0 mm 1 mps 721 mmHg 70%
    13:00 +1°C° 0 mm 1 mps 721 mmHg 73%
    14:00 +1°C° 0 mm 1 mps 721 mmHg 75%
    15:00 0°C° 0 mm 1 mps 721 mmHg 71%
    16:00 -1°C° 0 mm 1 mps 721 mmHg 67%
    17:00 -4°C° 0 mm 2 mps 721 mmHg 63%
    18:00 -5°C° 0 mm 2 mps 721 mmHg 61%
    19:00 -5°C° 0 mm 2 mps 721 mmHg 58%
    20:00 -5°C° 0 mm 2 mps 721 mmHg 56%
    21:00 -5°C° 0 mm 2 mps 721 mmHg 54%
    22:00 -5°C° 0 mm 2 mps 721 mmHg 53%
    23:00 -6°C° 0 mm 3 mps 721 mmHg 51%

    27 January, Sunday

    Time Temperature Precipitation Wind Pressure Humidity
    00:00 -6°C° 0 mm 3 mps 720 mmHg 50%
    01:00 -6°C° 0 mm 3 mps 720 mmHg 49%
    02:00 -6°C° 0 mm 3 mps 720 mmHg 49%
    03:00 -6°C° 0 mm 3 mps 720 mmHg 48%
    04:00 -6°C° 0 mm 3 mps 720 mmHg 48%
    05:00 -6°C° 0 mm 3 mps 720 mmHg 48%
    06:00 -6°C° 0 mm 3 mps 720 mmHg 49%
    07:00 -6°C° 0 mm 3 mps 720 mmHg 49%
    08:00 -5°C° 0 mm 2 mps 721 mmHg 50%
    09:00 -3°C° 0 mm 2 mps 721 mmHg 56%
    10:00 -1°C° 0 mm 2 mps 721 mmHg 62%
    11:00 +2°C° 0 mm 1 mps 721 mmHg 67%
    12:00 +3°C° 0 mm 1 mps 721 mmHg 68%
    13:00 +3°C° 0 mm 1 mps 720 mmHg 68%
    14:00 +2°C° 0 mm 0 mps 720 mmHg 69%
    15:00 +2°C° 0 mm 1 mps 720 mmHg 65%
    16:00 +1°C° 0 mm 1 mps 719 mmHg 60%
    17:00 -1°C° 0 mm 1 mps 719 mmHg 56%
    18:00 -3°C° 0 mm 2 mps 719 mmHg 55%
    19:00 -4°C° 0 mm 2 mps 719 mmHg 54%
    20:00 -4°C° 0 mm 2 mps 719 mmHg 53%
    21:00 -5°C° 0 mm 3 mps 719 mmHg 52%
    22:00 -5°C° 0 mm 3 mps 718 mmHg 51%
    23:00 -5°C° 0 mm 3 mps 718 mmHg 49%
    Show more